[Iaude] MPEC V161: 2023 VE5 [a=1.04,e=0.36,i=28.9,H=23.7]
    mpec at marsden.cfa.harvard.edu 
    mpec at marsden.cfa.harvard.edu
       
    Fri Nov 10 02:58:01 EST 2023
    
    
  
M.P.E.C. 2023-V161                            Issued 2023 November 10, 07:56 UT
     The Minor Planet Electronic Circulars contain information on unusual
         minor planets, routine data on comets and natural satellites,
         and occasional editorial announcements.  They are published
    on behalf of Division F of the International Astronomical Union by the
          Minor Planet Center, Smithsonian Astrophysical Observatory,
                          Cambridge, MA 02138, U.S.A.
			  
             Prepared using the Tamkin Foundation Computer Network
                              MPC at CFA.HARVARD.EDU
            URL https://www.minorplanetcenter.net/    ISSN 1523-6714
                                    2023 VE5                                    
Observations:
     K23V05E*1C2023 11 08.33810703 41 14.467-02 45 00.90         21.25GVEV161G96
     K23V05E 1C2023 11 08.34326603 41 12.491-02 44 44.38         21.47GVEV161G96
     K23V05E 1C2023 11 08.34842603 41 10.482-02 44 27.96         21.48GVEV161G96
     K23V05E KC2023 11 08.41396903 40 44.980-02 41 02.11         21.06GVEV161V06
     K23V05E KC2023 11 08.41693203 40 43.806-02 40 53.08         21.26GVEV161V06
     K23V05E KC2023 11 08.41989803 40 42.672-02 40 43.50         21.31GVEV161V06
     K23V05E KC2023 11 08.42286103 40 41.531-02 40 34.18         21.53GVEV161V06
     K23V05E KC2023 11 09.25726903 35 20.360-01 55 14.45         21.42GVEV161I52
     K23V05E KC2023 11 09.26008603 35 19.190-01 55 04.84         21.19GVEV161I52
     K23V05E KC2023 11 09.26572103 35 16.865-01 54 45.94         21.00GVEV161I52
     K23V05E KC2023 11 10.31251803 28 01.769-00 53 15.61         21.21GVEV161I52
     K23V05E KC2023 11 10.31469503 28 00.822-00 53 07.76         21.31GVEV161I52
     K23V05E KC2023 11 10.31687603 27 59.861-00 53 00.06         21.24GVEV161I52
     K23V05E KC2023 11 10.31906603 27 58.846-00 52 51.64         21.45GVEV161I52
Observer details:
G96 Mt. Lemmon Survey.  Observer D. Rankin.  Measurers E. C. Beshore, D. Fay,
    J. B. Fazekas, D. C. Fuls, A. R. Gibbs, A. D. Grauer, H. Groeller, J. K.
    Hogan, R. A. Kowalski, S. M. Larson, G. J. Leonard, D. Rankin, R. L.
    Seaman, F. C. Shelly, K. W. Wierzchos.  1.5-m reflector + 10K CCD.
I52 Steward Observatory, Mt. Lemmon Station.  Observer H. Groeller.  Measurers
    E. C. Beshore, D. Fay, J. B. Fazekas, D. C. Fuls, A. R. Gibbs, A. D.
    Grauer, H. Groeller, J. K. Hogan, R. A. Kowalski, S. M. Larson, G. J.
    Leonard, D. Rankin, R. L. Seaman, F. C. Shelly, K. W. Wierzchos.  1.0-m
    prime focus + CCD.
V06 Catalina Sky Survey-Kuiper.  Observer H. Groeller.  Measurers E. C.
    Beshore, D. Fay, J. B. Fazekas, D. C. Fuls, A. R. Gibbs, A. D. Grauer, H.
    Groeller, J. K. Hogan, R. A. Kowalski, S. M. Larson, G. J. Leonard, D.
    Rankin, R. L. Seaman, F. C. Shelly, K. W. Wierzchos.  1.55-m reflector +
    1K CCD.
Orbital elements:
2023 VE5                                                 Earth MOID = 0.1074 AU
Epoch 2023 Sept. 13.0 TT = JDT 2460200.5                MPC                     
M 214.61402              (2000.0)            P               Q                  
n   0.92514641     Peri.  123.16452     -0.91459060     -0.11518581             
a   1.0431075      Node    53.36290     -0.16230209     -0.77341681             
e   0.3645756      Incl.   28.88599     +0.37038097     -0.62334474             
P   1.07           H   23.71          G   0.15           U   9                  
Residuals in seconds of arc
231108 G96  0.2-  0.6-    231108 V06  0.0   0.1+    231110 I52  0.2-  0.2+
231108 G96  0.2+  0.2-    231108 V06  0.1+  0.1+    231110 I52  0.1+  0.0
231108 G96  0.2+  0.1+    231109 I52  0.0   0.1-    231110 I52  0.3+  0.3-
231108 V06  0.0   0.2+    231109 I52  0.1-  0.0     231110 I52  0.3-  0.1+
231108 V06  0.3-  0.1-    231109 I52  0.0   0.1-
Ephemeris:
2023 VE5                 a,e,i = 1.04, 0.36, 29                  q = 0.6628
Date    TT    R. A. (2000) Decl.     Delta      r    Elong.  Phase     V
2023 10 11    04 50 07.6 -11 29 29   0.4788  1.3092   120.7    41.0    24.3
...
2023 10 26    04 33 22.8 -09 30 49   0.3276  1.2508   136.0    33.5    23.2
...
2023 11 03    04 08 41.4 -06 26 55   0.2545  1.2148   147.6    25.9    22.3
...
2023 11 09    03 37 01.5 -02 09 12   0.2070  1.1857   158.4    17.9    21.6
2023 11 10    03 30 15.1 -01 11 49   0.2000  1.1807   160.2    16.5    21.5
2023 11 11    03 22 59.0 -00 09 38   0.1933  1.1756   161.9    15.2    21.3
...
2023 11 17    02 27 58.1 +07 48 39   0.1620  1.1440   162.0    15.5    20.9
...
2023 11 25    00 47 42.4 +20 52 20   0.1508  1.0994   135.2    39.3    21.4
...
2023 12 10    22 03 13.8 +32 46 18   0.2127  1.0085    90.2    77.6    23.1
A. U. Tomatic                (C) Copyright 2023 MPC           M.P.E.C. 2023-V161
    
    
More information about the Iaude
mailing list